Regional Weather Roundup
Issued by NWS

Home | Current Version | Previous Version | Graphics & Text | Print | Product List | Glossary On
Versions: 1 2 3 4 5 6 7 8 9 10 11 12 13 14 15 16 17 18 19 20 21 22 23 24 25 26 27 28 29 30 31 32 33 34 35 36 37 38 39 40 41 42 43 44 45 46 47 48 49 50
000
ASUS43 KMKX 110000
RWRWI

WISCONSIN REGIONAL WEATHER ROUNDUP
NATIONAL WEATHER SERVICE MILWAUKEE/SULLIVAN WI
700 PM CDT THU JUL 10 2014

NOTE: "FAIR" INDICATES FEW OR NO CLOUDS BELOW 12,000 FEET WITH NO
SIGNIFICANT WEATHER AND/OR OBSTRUCTIONS TO VISIBILITY.

WIZ001-002-006>008-014>016-023>028-110100-
NORTHWEST WISCONSIN

CITY           SKY/WX    TMP DP  RH WIND       PRES   REMARKS
SUPERIOR ARPT  MOSUNNY   60  53  78 NE8       30.00S
ASHLAND        SUNNY     77  59  53 SW7       30.01S
6HR MIN TEMP:  76; 6HR MAX TEMP:  80;

HAYWARD        SUNNY     77  61  57 S6        30.03R
6HR MIN TEMP:  76; 6HR MAX TEMP:  79;

SIREN          PTSUNNY   79  61  53 S7        30.00S HX  80
RICE LAKE      PTSUNNY   78  61  56 S7        30.04R
LADYSMITH      SUNNY     78  60  54 S8        30.06R
EAU CLAIRE     NOT AVBL
MENOMONIE      MOCLDY    78  64  61 S9        30.02S HX  80
NEW RICHMOND   PTSUNNY   79  61  54 S8        30.01S HX  80
OSCEOLA        PTSUNNY   80  63  55 S8        30.02S HX  81
$$

WIZ003>005-009-010-017-018-110100-
NORTH CENTRAL WISCONSIN

CITY           SKY/WX    TMP DP  RH WIND       PRES   REMARKS
WOODRUFF       SUNNY     77  57  49 SW6       30.08R
RHINELANDER    SUNNY     74  56  53 S7        30.09S
6HR MIN TEMP:  71; 6HR MAX TEMP:  76;

EAGLE RIVER    MOSUNNY   74  49  41 SW7       30.08R
LAND O LAKES   SUNNY     75  51  43 SW8       30.09R
PHILLIPS       PTSUNNY   76  59  55 S9        30.05S
TOMAHAWK       MOSUNNY   75  59  58 CALM      30.08S
MEDFORD        MOSUNNY   74  62  64 S8        30.07S
MERRILL        MOSUNNY   77  60  55 S5        30.07S
$$

WIZ029-030-035-036-043>047-110100-
CENTRAL WISCONSIN

CITY           SKY/WX    TMP DP  RH WIND       PRES   REMARKS
WAUSAU         MOSUNNY   77  59  53 S10       30.06S
6HR MIN TEMP:  74; 6HR MAX TEMP:  78;

MOSINEE        MOSUNNY   73  61  64 S9        30.09S
MARSHFIELD     SUNNY     74  63  68 S8        30.07R
6HR MIN TEMP:  74; 6HR MAX TEMP:  78;

STEVENS POINT  MOSUNNY   75  58  55 S9        30.09R
WAUPACA        MOSUNNY   78  59  52 S7        30.09S
WAUTOMA        NOT AVBL
WISC RAPIDS    PTSUNNY   78  61  55 S8        30.09R HX  80
6HR MIN TEMP:  77; 6HR MAX TEMP:  81;

CAMP DOUGLAS   NOT AVBL
$$

WIZ011>013-019>022-031-037>040-048>050-110100-
NORTHEAST WISCONSIN

CITY           SKY/WX    TMP DP  RH WIND       PRES   REMARKS
ANTIGO         SUNNY     72  59  65 S6        30.10S
STURGEON BAY   SUNNY     64  50  59 S12       30.13F
6HR MIN TEMP:  64; 6HR MAX TEMP:  70;

GREEN BAY      SUNNY     72  54  53 SE13      30.10F
6HR MIN TEMP:  72; 6HR MAX TEMP:  79;

MANITOWOC      NOT AVBL
APPLETON       MOSUNNY   73  57  56 SE8       30.11S
CLINTONVILLE   MOSUNNY   77  55  47 S8        30.08F
OSHKOSH        SUNNY     74  60  61 SE13      30.10R
6HR MIN TEMP:  74; 6HR MAX TEMP:  79;

$$

WIZ032>034-041-042-053>061-110100-
SOUTHWEST WISCONSIN

CITY           SKY/WX    TMP DP  RH WIND       PRES   REMARKS
LA CROSSE      MOSUNNY   81  62  52 S10       30.04S HAZE    HX  82
6HR MIN TEMP:  80; 6HR MAX TEMP:  84;

SPARTA         MOSUNNY   78  60  54 S6        30.07S
VIROQUA        FAIR      76  62  60 S9        30.09S
BOSCOBEL       SUNNY     80  62  54 VRB6      30.08R HX  81
6HR MIN TEMP:  79; 6HR MAX TEMP:  83;

PRAIRIE DU CHI NOT AVBL
PLATTEVILLE    FAIR      77  61  56 S9        30.11S
$$

WIZ056-057-062-063-064-067-068-110100-
SOUTH CENTRAL WISCONSIN

CITY           SKY/WX    TMP DP  RH WIND       PRES   REMARKS
BARABOO/DELLS  MOSUNNY   77  60  54 S8        30.09S
LONE ROCK      NOT AVBL
WATERTOWN      SUNNY     75  59  57 S5        30.10S
MADISON        PTSUNNY   78  58  49 SW7       30.10S
6HR MIN TEMP:  77; 6HR MAX TEMP:  81;

MIDDLETON      FAIR      79  58  48 S7        30.10S HX  80
MONROE         MOSUNNY   75  59  57 S7        30.11S
JANESVILLE     MOSUNNY   79  55  44 SE8       30.10F
$$

WIZ051-052-058>065-066-070>072-110100-
SOUTHEAST WISCONSIN

CITY           SKY/WX    TMP DP  RH WIND       PRES   REMARKS
MILWAUKEE      MOSUNNY   67  51  56 SE14      30.14F
6HR MIN TEMP:  67; 6HR MAX TEMP:  71;

WAUKESHA       SUNNY     73  57  56 SE10      30.16S
MILWAUKEE/TIMM NOT AVBL
RACINE         SUNNY     68  53  58 SE12      30.16S
6HR MIN TEMP:  68; 6HR MAX TEMP:  71;

BURLINGTON     SUNNY     71  56  60 E9        30.13S
KENOSHA        SUNNY     69  53  56 SE10      30.15S
6HR MIN TEMP:  69; 6HR MAX TEMP:  73;

FOND DU LAC    SUNNY     73  57  57 SE15      30.11S
6HR MIN TEMP:  73; 6HR MAX TEMP:  79;

SHEBOYGAN      SUNNY     67  53  61 S8        30.14S
6HR MIN TEMP:  67; 6HR MAX TEMP:  71;

WEST BEND      SUNNY     68  50  52 E9        30.14S
JUNEAU         MOSUNNY   76  40  27 SE9       30.12S
$$

LSZ147-162-110100-
LAKE SUPERIOR

STATION/POSITION TIME  TEMP    WIND        PRES    WAVE
                       AIR SEA DIR/SP/G            HT/PER
                 (UTC) (F)     (DEG/KT/KT) (MB)    (FT/S)
W MID LAKE BUOY  2250   49 39  120/  8/ 10 1016.8S   0
PORT WING        2300   57      30/  7/  9 1015.6
SAXON HARBOR     2300          220/  3/ 11 1015.9S
$$

LMZ867-665-643>646-110100-
LAKE MICHIGAN

STATION/POSITION TIME  TEMP    WIND        PRES    WAVE
                       AIR SEA DIR/SP/G            HT/PER
                 (UTC) (F)     (DEG/KT/KT) (MB)    (FT/S)
N MID LAKE BUOY  2250   59 56  170/  6/  6 1020.5F   0
NORTHPORT PIER   2300   64     160/  9/ 13 1020.3F
KEWAUNEE LAKESHO 2300   56     180/  5/  8 1021.4F
SHEBOYGAN LAKESH 2300   62     170/ 10/ 10 1021.0F
PORT WASHINGTON  2300   65     170/  2/  4 1021.0F
MILWAUKEE LAKESH 2300   61     160/  5/  7   N/A
S MID LAKE BUOY  2250   64 63  130/  2/  2 1021.5F   0
KENOSHA   LAKESH 2300   66     170/  6/  7   N/A
$$

TC  - TEMPERATURE IN CELSIUS
VSB - VISIBILITY IN STATUTE MILES
WCI - WIND CHILL INDEX
HX  - HEAT INDEX




USA.gov is the U.S. government's official web portal to all federal, state and local government web resources and services.